This is the latest recevied weather packets stored in our database for station/object LY3FF-10. If no packets are shown the sender has not sent any weather packets the latest 10 day(s).
| Time | Temp. | Humidity | Pressure | Rain* | Wind** | Luminosity | Snow |
|---|---|---|---|---|---|---|---|
| 1777941837 | 13.89° C | 62% | 990.3 hPa | - | - | - | - |
| 1777940937 | 14.44° C | 62% | 990.1 hPa | - | - | - | - |
| 1777940152 | 15° C | 60% | 990 hPa | - | - | - | - |
| 1777939286 | 15.56° C | 59% | 989.9 hPa | - | - | - | - |
| 1777938502 | 16.11° C | 59% | 990.4 hPa | - | - | - | - |
| 1777937617 | 15.56° C | 57% | 990 hPa | - | - | - | - |
| 1777936842 | 16.11° C | 57% | 990.2 hPa | - | - | - | - |
| 1777936087 | 16.11° C | 57% | 990.1 hPa | - | - | - | - |
| 1777935207 | 16.11° C | 57% | 990.1 hPa | - | - | - | - |
| 1777934347 | 15.56° C | 57% | 990.2 hPa | - | - | - | - |
| 1777933616 | 16.11° C | 58% | 990.2 hPa | - | - | - | - |
| 1777932747 | 15.56° C | 57% | 990.3 hPa | - | - | - | - |
| 1777931857 | 16.11° C | 57% | 990.5 hPa | - | - | - | - |
| 1777931065 | 16.67° C | 56% | 990.6 hPa | - | - | - | - |
| 1777930182 | 16.67° C | 55% | 990.7 hPa | - | - | - | - |
| 1777929387 | 17.22° C | 55% | 990.7 hPa | - | - | - | - |
| 1777928532 | 16.67° C | 56% | 990.5 hPa | - | - | - | - |
| 1777927687 | 17.78° C | 54% | 990.3 hPa | - | - | - | - |
| 1777926837 | 17.78° C | 54% | 990.1 hPa | - | - | - | - |
| 1777926096 | 17.78° C | 53% | 989.9 hPa | - | - | - | - |
| 1777925346 | 17.22° C | 55% | 990.1 hPa | - | - | - | - |
| 1777924627 | 18.33° C | 56% | 989.9 hPa | - | - | - | - |
| 1777923832 | 17.78° C | 56% | 989.9 hPa | - | - | - | - |
| 1777923052 | 18.89° C | 50% | 990 hPa | - | - | - | - |
| 1777922297 | 19.44° C | 48% | 990.5 hPa | - | - | - | - |
* Rain since midnight (hover to see other rain measurements)
** Current wind speed in m/s (hover to see current wind gust speed)